Wooster, OH

10:19 PM EST on February 20, 2017 (GMT -0500)
Wayne County

Weather History for KBJJ - April, 2013

Change the Weather History Date:

Wednesday, April 24, 2013

  Actual Average Record
Temperature  
Mean Temperature 47 °F -  
Max Temperature 59 °F 59 °F 73 °F (2008)
Min Temperature 35 °F 37 °F 26 °F (2015)
Degree Days  
Heating Degree Days 18    
Moisture  
Dew Point 42 °F    
Average Humidity 86    
Maximum Humidity 94    
Minimum Humidity 53    
Precipitation  
Precipitation 0.60 in - - ()
Sea Level Pressure  
Sea Level Pressure 29.89 in    
Wind  
Wind Speed 10 mph (West)    
Max Wind Speed 21 mph    
Max Gust Speed 31 mph    
Visibility 8 miles    
Events Rain    
Averages and records for this station are not official NWS values.
T = Trace of Precipitation, MM = Missing Value Source: NWS Daily Summary

Daily Weather History Graph

Daily Weather History Graph

Search for Another Location

Airport or City:

Trip Planner

Search our weather history database for the weather conditions in past years. The results will help you decide how hot, cold, wet, or windy it might be!

Date:

Astronomy

Apr. 24, 2013 Rise Set
Actual Time 6:34 AM EDT 8:16 PM EDT
Civil Twilight 6:05 AM EDT 8:46 PM EDT
Nautical Twilight 5:30 AM EDT 9:21 PM EDT
Astronomical Twilight 4:52 AM EDT 9:59 PM EDT
Moon 7:18 PM EDT (4/24) 5:38 AM EDT (4/24)
Length of Visible Light 14h 40m
Length of Day
13h 41m
Waxing Gibbous, 98% of the Moon is Illuminated
Apr 24
Waxing Gibbous
Apr 25
Full
May 2
Last Quarter
May 9
New
May 18
First Quarter

Hourly Weather History & Observations

Time (EDT) Temp. Windchill Dew Point Humidity Pressure Visibility Wind Dir Wind Speed Gust Speed Precip Events Conditions
12:56 AM 59.0 °F - 42.1 °F 53% 29.88 in 10.0 mi South 8.1 mph - N/A   Overcast
1:56 AM 57.0 °F - 43.0 °F 59% 29.87 in 10.0 mi SSW 3.5 mph - N/A   Overcast
2:56 AM 55.9 °F - 46.0 °F 69% 29.86 in 10.0 mi SSW 5.8 mph - 0.01 in Rain Light Rain
3:56 AM 54.0 °F - 51.1 °F 90% 29.84 in 5.0 mi South 8.1 mph - 0.12 in Rain Light Rain
4:56 AM 54.0 °F - 51.1 °F 90% 29.81 in 8.0 mi SSE 6.9 mph - 0.03 in Rain Light Rain
5:56 AM 54.0 °F - 50.0 °F 86% 29.80 in 10.0 mi South 10.4 mph - 0.03 in   Overcast
6:56 AM 55.0 °F - 48.9 °F 80% 29.79 in 10.0 mi South 11.5 mph - 0.00 in   Mostly Cloudy
7:56 AM 57.0 °F - 48.9 °F 74% 29.79 in 10.0 mi SSW 13.8 mph 21.9 mph 0.00 in Rain Light Rain
8:56 AM 57.0 °F - 51.1 °F 81% 29.78 in 10.0 mi SSW 11.5 mph 20.7 mph 0.01 in Rain Light Rain
9:56 AM 57.9 °F - 51.1 °F 78% 29.76 in 10.0 mi SSW 20.7 mph 26.5 mph 0.00 in   Overcast
10:30 AM 55.4 °F - 51.8 °F 88% 29.77 in 1.8 mi SSW 16.1 mph 24.2 mph 0.05 in Rain Heavy Rain
10:37 AM 55.4 °F - 51.8 °F 88% 29.77 in 3.0 mi SSW 13.8 mph 23.0 mph 0.07 in Rain Light Rain
10:56 AM 55.9 °F - 53.1 °F 90% 29.75 in 7.0 mi South 10.4 mph - 0.07 in Rain Light Rain
11:11 AM 55.4 °F - 53.6 °F 94% 29.76 in 6.0 mi SSW 10.4 mph - 0.01 in Rain Light Rain
11:42 AM 55.4 °F - 53.6 °F 94% 29.76 in 3.0 mi SSW 12.7 mph - 0.07 in Rain Rain
11:56 AM 55.9 °F - 53.1 °F 90% 29.76 in 3.0 mi SW 9.2 mph - 0.10 in Rain Rain
12:19 PM 42.8 °F 34.3 °F 39.2 °F 87% 29.80 in 3.0 mi NNW 19.6 mph 31.1 mph 0.07 in Rain Rain
12:35 PM 42.8 °F 37.5 °F 39.2 °F 87% 29.78 in 6.0 mi North 9.2 mph 19.6 mph 0.09 in Rain Light Rain
12:48 PM 42.8 °F 38.0 °F 39.2 °F 87% 29.78 in 7.0 mi North 8.1 mph - 0.10 in Rain Light Rain
12:56 PM 42.1 °F 38.4 °F 39.9 °F 92% 29.79 in 7.0 mi North 5.8 mph - 0.11 in Rain Light Rain
1:15 PM 42.8 °F 41.1 °F 41.0 °F 93% 29.76 in 10.0 mi East 3.5 mph - 0.01 in Rain Light Rain
1:51 PM 42.8 °F 36.2 °F 41.0 °F 93% 29.79 in 5.0 mi NW 12.7 mph - 0.04 in Rain Light Rain
1:56 PM 43.0 °F 36.8 °F 41.0 °F 93% 29.79 in 5.0 mi NW 11.5 mph - 0.04 in Rain Light Rain
2:56 PM 41.0 °F 32.2 °F 39.0 °F 93% 29.84 in 5.0 mi NW 18.4 mph 26.5 mph 0.06 in Rain Light Rain
3:14 PM 41.0 °F 31.9 °F 37.4 °F 87% 29.84 in 3.0 mi NW 19.6 mph 24.2 mph 0.00 in Rain Light Rain
3:25 PM 41.0 °F 32.2 °F 37.4 °F 87% 29.85 in 7.0 mi NW 18.4 mph 27.6 mph 0.00 in   Overcast
3:45 PM 41.0 °F 33.1 °F 39.2 °F 93% 29.85 in 9.0 mi NW 15.0 mph - 0.00 in   Overcast
3:56 PM 41.0 °F 32.5 °F 37.9 °F 89% 29.87 in 6.0 mi NW 17.3 mph 23.0 mph 0.00 in Rain Light Rain
4:56 PM 39.0 °F 30.6 °F 36.0 °F 89% 29.94 in 7.0 mi NW 15.0 mph - 0.02 in Rain Light Rain
5:56 PM 39.0 °F 29.6 °F 35.1 °F 86% 30.00 in 10.0 mi WNW 18.4 mph 25.3 mph 0.00 in   Overcast
6:46 PM 37.4 °F 29.3 °F 35.6 °F 93% 30.03 in 10.0 mi WNW 12.7 mph - 0.00 in   Overcast
6:56 PM 37.9 °F 30.0 °F 35.1 °F 89% 30.04 in 10.0 mi WNW 12.7 mph - 0.00 in Rain Light Rain
7:45 PM 37.4 °F 30.3 °F 35.6 °F 93% 30.05 in 10.0 mi WNW 10.4 mph - 0.00 in Rain Light Rain
7:56 PM 37.9 °F 29.6 °F 34.0 °F 86% 30.07 in 10.0 mi WNW 13.8 mph - 0.00 in   Overcast
8:45 PM 37.4 °F 30.8 °F 33.8 °F 87% 30.10 in 10.0 mi WNW 9.2 mph - N/A   Scattered Clouds
8:56 PM 37.0 °F 31.0 °F 34.0 °F 89% 30.13 in 10.0 mi WNW 8.1 mph - N/A   Mostly Cloudy
9:11 PM 37.4 °F 31.4 °F 33.8 °F 87% 30.12 in 10.0 mi West 8.1 mph - N/A   Mostly Cloudy
9:36 PM 37.4 °F 32.8 °F 33.8 °F 87% 30.13 in 10.0 mi West 5.8 mph - N/A   Scattered Clouds
9:56 PM 36.0 °F 31.1 °F 33.1 °F 89% 30.16 in 10.0 mi WSW 5.8 mph - N/A   Clear
10:56 PM 35.1 °F 31.0 °F 32.0 °F 89% 30.18 in 10.0 mi SW 4.6 mph - N/A   Clear
11:56 PM 35.1 °F 31.0 °F 32.0 °F 89% 30.19 in 10.0 mi WSW 4.6 mph - N/A   Partly Cloudy